TimeEST,TemperatureF,Dew PointF,Humidity,Sea Level PressureIn,VisibilityMPH,Wind Direction,Wind SpeedMPH,Gust SpeedMPH,PrecipitationIn,Events,Conditions,WindDirDegrees,DateUTC
12:53 AM,34.0,24.1,67,30.32,10.0,ESE,6.9,-,N/A,,Clear,110,2013-03-09 05:53:00
1:53 AM,33.1,23.0,66,30.32,10.0,SE,6.9,-,N/A,,Clear,130,2013-03-09 06:53:00
2:53 AM,33.1,24.1,70,30.29,10.0,ESE,8.1,-,N/A,,Clear,120,2013-03-09 07:53:00
3:53 AM,34.0,24.1,67,30.25,10.0,ESE,6.9,-,N/A,,Partly Cloudy,110,2013-03-09 08:53:00
4:53 AM,35.1,25.0,67,30.27,10.0,SE,8.1,-,N/A,,Scattered Clouds,140,2013-03-09 09:53:00
5:53 AM,34.0,26.1,73,30.27,10.0,ESE,6.9,-,N/A,,Clear,110,2013-03-09 10:53:00
6:53 AM,34.0,26.1,73,30.27,10.0,SE,5.8,-,N/A,,Clear,140,2013-03-09 11:53:00
7:53 AM,35.1,26.1,70,30.25,10.0,ESE,11.5,-,N/A,,Clear,120,2013-03-09 12:53:00
8:53 AM,39.0,27.0,62,30.26,10.0,SSE,6.9,-,N/A,,Clear,150,2013-03-09 13:53:00
9:53 AM,42.1,26.1,53,30.24,10.0,SSE,13.8,21.9,N/A,,Clear,150,2013-03-09 14:53:00
10:53 AM,46.0,30.0,54,30.23,10.0,SE,12.7,18.4,N/A,,Clear,130,2013-03-09 15:53:00
11:53 AM,48.9,30.0,48,30.21,10.0,SE,8.1,-,N/A,,Clear,140,2013-03-09 16:53:00
12:53 PM,51.1,30.9,46,30.18,10.0,SSE,10.4,-,N/A,,Clear,150,2013-03-09 17:53:00
1:53 PM,54.0,30.9,41,30.14,10.0,SSE,12.7,-,N/A,,Scattered Clouds,150,2013-03-09 18:53:00
2:53 PM,54.0,30.0,40,30.10,10.0,SSE,9.2,-,N/A,,Overcast,160,2013-03-09 19:53:00
3:53 PM,55.9,32.0,40,30.08,10.0,SE,12.7,18.4,N/A,,Mostly Cloudy,140,2013-03-09 20:53:00
4:53 PM,55.9,30.9,39,30.05,10.0,SSE,10.4,-,N/A,,Overcast,150,2013-03-09 21:53:00
5:53 PM,55.0,30.9,40,30.04,10.0,SSE,10.4,-,N/A,,Overcast,150,2013-03-09 22:53:00
6:53 PM,54.0,30.0,40,30.03,10.0,SE,11.5,-,N/A,,Mostly Cloudy,140,2013-03-09 23:53:00
7:53 PM,53.1,30.9,43,30.02,10.0,SE,10.4,-,N/A,,Clear,140,2013-03-10 00:53:00
8:53 PM,52.0,32.0,47,30.01,10.0,SSE,9.2,-,N/A,,Partly Cloudy,160,2013-03-10 01:53:00
9:53 PM,52.0,32.0,47,29.99,10.0,SSE,11.5,-,0.00,,Mostly Cloudy,160,2013-03-10 02:53:00
10:53 PM,51.1,32.0,48,29.98,10.0,SSE,8.1,-,N/A,,Partly Cloudy,160,2013-03-10 03:53:00
11:53 PM,54.0,32.0,43,29.96,10.0,South,11.5,-,N/A,,Mostly Cloudy,180,2013-03-10 04:53:00